This is the latest recevied weather packets stored in our database for station/object DG8RAD-1. If no packets are shown the sender has not sent any weather packets the latest 10 day(s).
| Time | Temp. | Humidity | Pressure | Rain* | Wind** | Luminosity | Snow |
|---|---|---|---|---|---|---|---|
| 1777198505 | 23.89° C | 20% | 1023 hPa | 0 mm | - | - | - |
| 1777197605 | 23.33° C | 19% | 1024 hPa | 0 mm | - | - | - |
| 1777196705 | 23.33° C | 22% | 1024 hPa | 0 mm | - | - | - |
| 1777195805 | 22.22° C | 21% | 1024 hPa | 0 mm | - | - | - |
| 1777194905 | 22.22° C | 22% | 1024 hPa | 0 mm | - | - | - |
| 1777194005 | 21.67° C | 23% | 1024 hPa | 0 mm | - | - | - |
| 1777193105 | 21.67° C | 23% | 1024 hPa | 0 mm | - | - | - |
| 1777192205 | 21.11° C | 25% | 1024 hPa | 0 mm | - | - | - |
| 1777191305 | 20.56° C | 25% | 1024 hPa | 0 mm | - | - | - |
| 1777190405 | 20.56° C | 26% | 1024 hPa | 0 mm | - | - | - |
| 1777189505 | 20° C | 26% | 1024 hPa | 0 mm | - | - | - |
| 1777188605 | 20° C | 27% | 1024 hPa | 0 mm | - | - | - |
| 1777187705 | 20° C | 26% | 1024 hPa | 0 mm | - | - | - |
| 1777186805 | 19.44° C | 27% | 1024 hPa | 0 mm | - | - | - |
| 1777185905 | 18.89° C | 27% | 1024 hPa | 0 mm | - | - | - |
| 1777185005 | 18.33° C | 28% | 1024 hPa | 0 mm | - | - | - |
| 1777184105 | 17.78° C | 28% | 1024 hPa | 0 mm | - | - | - |
| 1777183205 | 18.89° C | 27% | 1024 hPa | 0 mm | - | - | - |
| 1777182305 | 17.22° C | 30% | 1024 hPa | 0 mm | - | - | - |
| 1777181405 | 16.67° C | 32% | 1023 hPa | 0 mm | - | - | - |
| 1777180505 | 16.11° C | 34% | 1023 hPa | 0 mm | - | - | - |
| 1777179605 | 15.56° C | 34% | 1023 hPa | 0 mm | - | - | - |
| 1777178705 | 15.56° C | 33% | 1023 hPa | 0 mm | - | - | - |
| 1777177805 | 15° C | 34% | 1023 hPa | 0 mm | - | - | - |
| 1777176905 | 15.56° C | 32% | 1023 hPa | 0 mm | - | - | - |
* Rain latest hour (hover to see other rain measurements)
** Current wind speed in m/s (hover to see current wind gust speed)